ONEWEB-0223 (48768 NORAD) Tracking and Keplerian Element Data

This shows tracking and keplerian element data for the satellite.

Feedback or suggestion? Click here.




ElementValue
Catalog48768
NameONEWEB-0223
Epoch Orbit355
Epoch Day214.91667824
Epoch Year2021
RAAN254.717
Inclination87.6159
Eccentricity0.0012148
Argument of Perigee28.5672
Mean Anonmoly73.2138
Mean Motion14.38176372
Decay Rate-0.01409861
L11 48768U 21045B 21214.91667824 -.01409861 00000-0 -49712+0 0 9991
L22 48768 87.6159 254.7170 0012148 28.5672 73.2138 14.38176372 3552

Live tracking and technical data element details for ONEWEB-0223 (NORAD 48768). ONEWEB-0223 can be tracked NOW for your location showing map with azimuth and elevation plus other details from your city location.

Track the satellite on the map from your city or location and see movement details for azimuth, elevation, latitude, longitude, range, height, and movement on the map or in text.







IsCatalogInMostPopularTable: catalog: 48768, numindb: 17
Update: records affected: 1



GetName: 48768 ONEWEB-0223

Hit Count: updated at: Tue, 03 Aug 2021 22:41:17 GMT